CamptonHillsWeather.com

Find the Weather for any City, State  
or Zipcode, or Country:

Campton Hills, IL Weather
Local Radar

Local Radar

Graphs, Details
Graphs and Gauges
Detailed Weather
Detailed Reports
Ajax Version (old)
Central Kane Co Summary
Davis Current Weather Graphs
Davis 24 Hour Weather History

CW3778 Data

Weather Underground
Maps
Temperature
Heat Index
Windchill
Humidity
Radar
Dew Point
Wind
Visibility
Visible Satellite
Satellite
Fronts
Snow Depth
Jet Stream
Flight Rules
Forecast Maps
Temperature Forecast
Maximum Temperature Forecast
Minimum Temperature Forecast
Dewpoint Forecast
Prevalent Weather
12Hr Probability of Precip.
Sky Cover
Health Maps
UV Forecast
Air Quality
Peak Air Quality Index
Weather Station
Davis Instruments Vantage Pro
Current Conditions [Select Refresh to Update]

Updated: 7:38am on 8/31/15

(location)
Currently:
59.7F

Clear
Mostly Cloudy

High: 62.1 F< 
(4:12am
Low: 59.0 F 
(7:02am)
Wind: N 0 mph
Calm
Gust: 0 mph
Today's High Wind: 0 mph (12:00am)
Humidity: 98%
Pressure: 30.06 in  (Steady
Pressure Rate: 0.009 in/hr
Dew Point: 59.1F
Wind Chill: 59.7 F
Heat Index (feels like): 66.6 F
Comfort Level: Cool
Temperature Rate:  0.04F/hr
 
5 Day Forecast
 
Mon Tue Wed Thu Fri
Clear Clear Clear Clear Clear
Hazy Hazy Partly Cloudy Mostly Cloudy Mostly Cloudy
84 89 91 88 88
67 68 68 68 67

Records and Normals
 
Temperature Forecast Normal Record
High 84 81 91
(2000)
Low 67 59 43
(2009)
 
Links
 
 
Weather Advisories
Warning Date: 3:32 am CDT on August 31, 2015
Warning Description: Dense Fog Advisory
Full Advisory Text...
Weather Map

Web Cam

Almanac
 
Sunrise:  
6:20am
Moonrise: 
8:43pm

Moon Phase:
98%

Sunset: 
7:31pm
Moonset:  
8:30am
 Star Chart...
Rainfall Totals
Hourly Rain 0.01 in
Daily Rain: 0.01 in
Monthly Rain: 3.05 in
Yearly Rain: 27.98 in
Normal Rain, month to date: 3.15 in
Normal Rain, year to date: 25.41 in
Link to Village of Campton Hills Map

Link to Counties of Illinois Map

Local Weather Exchange Network
Station ID City 
(Click for Map Location)
Neighborhood 
(Click for History)
Last Update (Date & Time) Temperature
 ()
Dew
Point ()
Humidity 
(%)
Wind 
(mph)
from the Wind Gust 
(mph) 
Pressure(in) Hourly
Rain(in)
KILSAINT10 Saint Charles Saint Charles Burr Road 08/31 07:28:48 60.8 59.0 94 0 ESE 0 29.78 0.00
MD5528 Wasco APRSWXNET 08/31 07:03:00 58.0 55.0 91 0 ESE 0 30.03 0.00
KILGENEV5 Geneva meso_neigh3 08/31 07:29:50 62.1 60.0 94 0 WSW 0 30.00 0.00
KILSAINT8 Saint Charles St. Charles Near West Side 08/31 07:27:24 60.3 59.0 96 0 SW 0 29.84 0.00
KILWAYNE4 Wayne Hampton Course 08/31 07:25:37 61.7 60.0 95 0 North 0 30.17 0.00
KILSAINT7 Saint Charles Silver Glen 08/31 07:30:02 60.8 60.0 98 0 South 0 29.68 0.00
KILSOUTH6 South Elgin Thornwood 08/31 07:29:52 59.2 59.0 99 0 North 0 28.20 0.00
KILCAMPT3 Campton Hills Campton Hills 08/31 07:30:16 59.2 59.0 100 0 WNW 0 30.06 0.00
KILSAINT6 Saint Charles 3 Lakes 08/31 07:27:22 59.9 58.0 92 0 SSW 0 29.82 0.00
KILSAINT9 Saint Charles Fox Chase 08/31 07:30:07 60.4 60.0 98 0 SW 0 30.06 0.00
KILGENEV6 Geneva Dover Ridge 08/31 07:30:16 60.9 60.0 98 0 NNW 0 30.03 0.00
MUR354 Geneva MesoWest 08/31 06:40:00 56.0 0.0 0 0 North 1 0.00 0.00
KILGENEV10 Geneva Southampton Drive 08/31 06:36:17 60.4 60.0 100 0 North 0 30.12 0.00
KILSTCHA8 St. Charles Ronzheimer Ave. & S. Tyler Rd. 08/31 07:30:16 60.9 60.0 98 0 West 0 30.02 0.00
KILGENEV9 Geneva Saint Andrews Circle 08/31 07:25:59 61.0 61.0 100 0 North 0 30.14 0.00
KILGENEV3 Geneva Mill Creek (Blackberry Way) 08/31 07:29:46 60.6 60.0 97 0 NNE 0 30.06 0.00
KILSTCHA1 St Charles CamptonHillsWeather.com Central Kane County 08/31 07:30:01 59.5 59.0 98 0 North 0 30.06 0.01
KILGENEV7 Geneva Eldorado Drive 08/31 07:25:49 62.8 62.0 98 0 North 0 30.00 0.00
KILGENEV8 Geneva Alexander Drive 08/31 07:25:38 53.8 48.0 80 0 North 0 29.94 0.00
KILSOUTH5 South Elgin Concord Park 08/31 07:26:08 60.4 60.0 99 0 SSW 0 29.83 0.00
KILGENEV2 Geneva Mill Creek 08/31 07:20:07 60.5 57.0 89 0 NW 0 30.00 0.00
KILELBUR11 Elburn Cheval de Selle 08/31 07:26:17 63.3 63.0 99 1 SSE 0 30.05 0.00
KILBATAV7 Batavia Charleston Street 08/31 07:25:55 61.0 61.0 100 0 North 0 30.14 0.00
KILBATAV1 Batavia Tri-Cities on the Fox River 08/31 07:29:30 61.2 57.0 85 0 North 0 30.06 0.00
KILELGIN16 Elgin Providence Subdivision 08/31 07:17:37 59.4 58.0 95 0 SSE 0 29.81 0.00
KILELBUR10 Elburn Prairie Valley North 08/31 07:30:04 61.3 61.0 98 0 SSE 0 29.02 0.00
KILBATAV10 Batavia Deerpath Road 08/31 07:25:47 62.4 61.0 95 0 North 0 30.07 0.00
KILELBUR9 Elburn Griffith Avenue 08/31 07:25:32 62.1 61.0 96 0 North 0 29.28 0.00
KILELBUR5 Elburn Prairie Highlands 08/31 07:30:16 62.8 62.0 98 0 North 0 30.04 0.00
KILWESTC12 West Chicago Woodland Avenue 08/31 07:26:03 60.6 59.0 94 0 North 0 30.14 0.00
KILELBUR12 Elburn Seaton Street 08/31 07:25:46 70.3 60.0 68 0 North 0 30.10 0.00
MD7322 Elburn APRSWXNET 08/31 06:56:00 59.0 58.0 98 0 West 0 30.04 0.00
KILBATAV3 Batavia West Batavia 08/31 07:19:00 59.1 58.0 97 0 WNW 0 30.02 0.00
KILELBUR6 Elburn Columbine Square 08/31 07:29:22 61.2 61.0 99 0 East 0 30.00 0.01
KILBATAV5 Batavia Fermi National Accelerator Laboratory 08/31 07:24:45 60.3 60.0 97 0 West 0 30.00 0.00
ME4225 Campton Hills APRSWXNET 08/31 06:59:00 59.0 58.0 97 0 East 0 30.02 0.00
MAU819 West Chicago APRSWXNET 08/31 07:06:00 58.0 57.0 96 0 North 0 30.06 0.00
KILWESTC5 West Chicago THEBROWNHOUSE.ORG 08/31 07:30:03 59.2 58.0 96 0 North 0 30.05 0.00
KILWESTC8 West Chicago Ingalton Hills Estates 08/31 07:30:13 60.0 59.0 98 0 WSW 0 30.19 0.00
KDPA Chicago DuPage Official Station 08/31 06:57:00 59.0 57.0 93 0 North --- 30.07 ---
Full Advisory Text
Warning Description: Dense Fog Advisory

Warning Date: 3:32 am CDT on August 31, 2015

WarningSum:...Dense Fog Advisory In Effect Until 9 Am Cdt This Morning...

Warning Message:The National Weather Service in Chicago has issued a dense fog
advisory...which is in effect until 9 am CDT this morning. 
* Visibility...less than a quarter mile in areas of dense fog.
Precautionary/preparedness actions...
A dense fog advisory means visibilities will frequently be
reduced to less than one quarter mile. If driving...slow down...
use your headlights...and leave plenty of distance ahead of you.
        

Ambient Weather and Weather Underground
 Never base important decisions on this or any weather information obtained from the Internet
Updated Automatically by Ambient Weather's Virtual Weather Station  V13.01